Starlink 5147

operational
NORAD ID: 53985 Int'l Des: 2022-125 Owner: SPXS Country: US Constellation: starlink
LEOCIRCULAR

Über Starlink 5147

Beschreibung wird geladen...

Live-Position

3D-Globus wird geladen...

Nächste Überflüge

Höhenverlauf

Altitude vs Time

uPlot chart will show altitude changes over time

Zweizeiliger Elementsatz

1 53985U 22125X 25308.45889547 -.00000977 00000-0 -43315-4 0 9995
2 53985 53.2179 56.5354 0001253 78.9004 281.2129 15.08827789170554
Epoch: 4. Nov. 2025 • Age: 6 hours

Aktueller Status

Höhe 540.0 km
Geschwindigkeit 7.59 km/s
Subsatellitenpunkt 8.75°N, 63.17°W
Startdatum 5. Okt. 2022
Alter 3 years
Typ internet

Technische Details

Klassifizierung Payload
Masse 305.00 kg
Trockenmasse 290.00 kg
Gesamtmasse 305.00 kg
Länge 0.20 m
Durchmesser 2.80 m
Spannweite 9.00 m
Form Box + pan
Hersteller SPXS
Bus-Typ Starlink
Phasenstatus In Orbit
Besitzer/Staat SPXS/US

Große Konstellationen

Loading constellations...